DELTA 1 DEB, 10717

Orbit data source: Space-Track

DELTA 1 DEB, 10717 is space debris in SSO originally from a launch on Thu, 29 Jul 1976 UTC launched from the Air Force Western Test Range (AFWTR). Debris objects in space refer to the collection of defunct objects orbiting the Earth. Examples of debris include non-operational satellites, rocket bodies, and fragments generated from explosions, collisions, or faulty payload assembly.

Loading next visibility...
Identifier
10717, 1976-077AN
Orbit
SSO
Country
Flag of USUS
Related business
Manufacturer
Unknown
Mission
Spacecraft
Bus & Motor
Unknown
Mass
Unknown
Launch date (UTC)
1976-07-29 (50 years ago)
Launch vehicle
Unknown
Launch site
Air Force Western Test Range (AFWTR)
Object type
Payload
Rocket body
Debris
Shape & HBR
Unknown shape, 0.1 m
Radar Cross Section
Small (<0.1 m²)

Expand to show TLE details & history
Last TLE update: 5 hours ago

TLE from 5 hours ago
0 DELTA 1 DEB
1 10717U 76077AN  26121.22704522 -.00000023  00000-0  20767-3 0  9990
2 10717 102.6467 106.3438 0100334  23.5296 357.8220 12.23331326221993
Epoch: 2026-05-01T05:26Z
TLE epoch observation values (Epoch: 2026-05-01T05:26:56.707Z)
Latitude
20.77586°
Longitude
160.58587°
Altitude
1,500.473 km
Speed
7.151 km/s
True Right ascension
06h 45m 56s
True Declination
20° 40' 22"
Sunlit
Object was in daylight at epoch
Visualization orbit readout
Latitude
Unknown
Longitude
Unknown
Altitude
Unknown
Speed
Unknown
Apparent Right ascension
Unknown
Apparent Declination
Unknown
Sunlit
N/A
Visualization observer readout
Local Sidereal Time
18:12:58
Azimuth
Unknown
Elevation
Unknown
Doppler factor
Unknown
Orbital elements
Apogee altitude
1,655.504 km
Perigee altitude
1,495.896 km
Semi-major axis
7,953.837 km
Eccentricity
0.01003
Inclination
102.6467°
RAAN
106.3438°
Arg. of periapsis
23.5296°
True anomaly
357.77775°
Mean anomaly
357.822°
Eccentric anomaly
357.79993°
Mean motion
3.0597 °/min
Orbital period
117.66 mins
BSTAR
0.00020767
Loading maneuver chart data...
Computing Atmospheric mass density...
Loading historical data...
Loading historical data...
Loading historical data...
Loading historical data...
Loading historical data...
Loading historical data...
Loading historical data...

Documentation

Showing up to 5 results
|